STARLINK-11306, 61254

Orbit data source: Space-Track

STARLINK-11306, 61254 is a payload satellite owned by SpaceX/Seattle (US) in LEO that was launched on Wed, 25 Sep 2024 UTC via an FALCON 9 launch vehicle from the Air Force Western Test Range (AFWTR). Payload-class satellites include a variety of spacecraft equipped with specific instruments for various scientific and technological missions. These include communications satellites like Starlink; space stations such as the ISS; scientific satellites like the Hubble; Earth observation satellites from companies like Planet Labs, Umbra, and HawkEye 360; GPS; miniature CubeSats for education and research; and military/defense satellites.

Loading next visibility...
Identifier
61254, 2024-175M
Orbit
LEO
Country
Flag of USUS
Related business
Manufacturer
SpaceX/Seattle
Mission
Operational Commercial Communications
Bus & Motor
STARLINK V2MD, Unknown motor
Mass
960 kg wet, ~910 kg dry
Launch date (UTC)
2024-09-25 (1 year ago)
Launch vehicle
FALCON 9
Launch site
Air Force Western Test Range (AFWTR)
Object type
Payload
Rocket body
Debris
Shape & HBR
Box + 2 Pan, 18.1 m
Radar Cross Section
36.964 m², Large (>1 m²)

Expand to show TLE details & history
Last TLE update: 17 hours ago

TLE from 17 hours ago
0 STARLINK-11306
1 61254U 24175M   25312.64812310  .00000752  00000-0  11066-4 0  9997
2 61254  53.1586 293.0869 0001102  63.8075 296.3056 15.69710582 65554
Epoch: 2025-11-08T15:33Z
TLE epoch observation values (Epoch: 2025-11-08T15:33:17.835Z)
Latitude
-0.00005°
Longitude
11.68783°
Altitude
360.311 km
Speed
7.695 km/s
True Right ascension
19h 32m 20s
True Declination
0° 00' 00"
Sunlit
Object was in daylight at epoch
Visualization orbit readout
Latitude
Unknown
Longitude
Unknown
Altitude
Unknown
Speed
Unknown
Apparent Right ascension
Unknown
Apparent Declination
Unknown
Sunlit
N/A
Visualization observer readout
Local Sidereal Time
04:26:22
Azimuth
Unknown
Elevation
Unknown
Doppler factor
Unknown
Orbital elements
Apogee altitude
360.729 km
Perigee altitude
359.243 km
Semi-major axis
6,738.123 km
Eccentricity
0.00011
Inclination
53.1586°
RAAN
293.0869°
Arg. of periapsis
63.8075°
True anomaly
296.29428°
Mean anomaly
296.3056°
Eccentric anomaly
296.29994°
Mean motion
3.92405 °/min
Orbital period
91.74 mins
BSTAR
0.000011066
Loading maneuver chart data...
Computing Atmospheric mass density...
Loading historical data...
Loading historical data...
Loading historical data...
Loading historical data...
Loading historical data...
Loading historical data...
Loading historical data...

Documentation

Showing up to 5 results
|